{"data":{"norad_id":68698,"epoch":"2026-05-19T12:56:44.304288Z","epoch_age_seconds":553615,"freshness":"STALE","line1":"1 68698U 26080H   26139.53940167  .00003696  00000+0  23163-3 0  9990","line2":"2 68698  97.6650 215.1871 0016159 159.8385 200.3486 15.09880071  5308","mean_motion":15.09880071,"eccentricity":0.0016159,"inclination_deg":97.665,"raan_deg":215.1871,"arg_perigee_deg":159.8385,"mean_anomaly_deg":200.3486,"bstar":0.00023163,"rev_number":530,"period_min":95.371813143165,"perigee_km":525.39266425848,"apogee_km":547.73960184387,"semimajor_km":6914.7031330512,"source":"CELESTRAK","updated_at":"2026-05-25T13:38:08.024308Z"}}